Weather History for Alpena, MI

Change the Weather History Date:

Thursday, January 19, 2012

  Actual Average Record
Temperature  
Mean Temperature 10 °F 19 °F  
Max Temperature 22 °F 26 °F 51 °F (1947)
Min Temperature -2 °F 11 °F -20 °F (1962)
Degree Days  
Heating Degree Days 55 46  
Month to date heating degree days 766 863  
Since 1 July heating degree days 3398 3924  
Moisture  
Dew Point 11 °F    
Average Humidity 70    
Maximum Humidity 84    
Minimum Humidity 55    
Precipitation  
Precipitation 0.04 in 0.06 in 0.97 in (1949)
Month to date precipitation 1.19 1.09  
Year to date precipitation 1.19 1.09  
Snow  
Snow 0.90 in 0.70 in 4.80 in (1931)
Month to date snowfall 16.9 13.3  
Since 1 July snowfall 22.1 40.6  
Snow Depth 8.00 in    
Sea Level Pressure  
Sea Level Pressure 29.71 in    
Wind  
Wind Speed 11 mph (West)    
Max Wind Speed 22 mph    
Max Gust Speed 32 mph    
Visibility 5 miles    
Events Fog , Snow    
T = Trace of Precipitation, MM = Missing Value Source: NWS Daily Summary

Daily Weather History Graph

Daily Weather History Graph

Search for Another Location

Airport:

Trip Planner

Search our weather history database for the weather conditions in past years. The results will help you decide how hot, cold, wet, or windy it might be!

Date:

Astronomy

Jan. 19, 2012 Rise Set
Actual Time 8:06 AM EST 5:23 PM EST
Civil Twilight 7:34 AM EST 5:55 PM EST
Nautical Twilight 6:58 AM EST 6:31 PM EST
Astronomical Twilight 6:23 AM EST 7:06 PM EST
Moon 4:45 AM EST (1/19) 1:51 PM EST (1/19)
Length of Visible Light 10h 21m
Length of Day
9h 16m
Waning Crescent, 16% of the Moon is Illuminated
Jan 19
Waning Crescent
Jan 23
New
Jan 30
First Quarter
Feb 7
Full
Feb 14
Last Quarter

Hourly Weather History & Observations

Time (EST) Temp. Windchill Dew Point Humidity Pressure Visibility Wind Dir Wind Speed Gust Speed Precip Events Conditions
12:54 AM 19.9 °F 6.7 °F 14.0 °F 78% 29.85 in 10.0 mi SSW 13.8 mph - N/A   Overcast
1:54 AM 19.0 °F 6.1 °F 12.0 °F 74% 29.80 in 10.0 mi South 12.7 mph - 0.00 in   Partly Cloudy
2:54 AM 19.0 °F 2.7 °F 12.9 °F 77% 29.75 in 10.0 mi South 20.7 mph 26.5 mph N/A   Clear
3:54 AM 19.9 °F 6.2 °F 12.9 °F 74% 29.70 in 10.0 mi South 15.0 mph 24.2 mph N/A   Partly Cloudy
4:39 AM 19.4 °F 5.5 °F 15.8 °F 86% 29.63 in 2.5 mi South 15.0 mph - 0.00 in Snow Light Snow
4:52 AM 19.4 °F 6.6 °F 15.8 °F 86% 29.62 in 1.5 mi South 12.7 mph - 0.00 in Snow Light Snow
4:54 AM 19.9 °F 6.7 °F 16.0 °F 85% 29.66 in 1.2 mi South 13.8 mph - 0.00 in Snow Light Snow
5:23 AM 19.4 °F 5.0 °F 17.6 °F 93% 29.59 in 2.5 mi South 16.1 mph - 0.01 in Snow Light Snow
5:54 AM 21.0 °F 6.6 °F 17.1 °F 85% 29.61 in 2.5 mi South 17.3 mph 23.0 mph 0.01 in Snow Light Snow
6:06 AM 21.2 °F 8.3 °F 17.6 °F 86% 29.58 in 3.0 mi South 13.8 mph - 0.00 in   Overcast
6:54 AM 21.0 °F 9.3 °F 17.1 °F 85% 29.60 in 5.0 mi South 11.5 mph - 0.00 in Snow Light Snow
7:54 AM 21.0 °F 10.6 °F 17.1 °F 85% 29.60 in 6.0 mi SSW 9.2 mph - 0.00 in Snow Light Snow
8:00 AM 21.2 °F 10.1 °F 17.6 °F 86% 29.56 in 2.5 mi SSW 10.4 mph - 0.00 in Snow Light Snow
8:07 AM 21.2 °F 10.1 °F 17.6 °F 86% 29.56 in 3.0 mi SSW 10.4 mph - 0.00 in Snow Light Snow
8:54 AM 21.9 °F 12.5 °F 17.1 °F 82% 29.61 in 9.0 mi SW 8.1 mph - 0.00 in   Overcast
9:06 AM 21.2 °F 10.9 °F 17.6 °F 86% 29.58 in 0.5 mi SW 9.2 mph - 0.00 in Snow Snow
9:08 AM 21.2 °F 12.6 °F 17.6 °F 86% 29.58 in 0.2 mi SW 6.9 mph - 0.00 in Snow Heavy Snow
9:10 AM 21.2 °F 13.6 °F 17.6 °F 86% 29.58 in 0.2 mi SW 5.8 mph - 0.00 in Snow Heavy Snow
9:22 AM 21.2 °F 12.6 °F 19.4 °F 93% 29.59 in 0.5 mi WNW 6.9 mph - 0.01 in Fog , Snow Snow
9:40 AM 21.2 °F 12.6 °F 17.6 °F 86% 29.61 in 2.0 mi WNW 6.9 mph 17.3 mph 0.03 in Snow Light Snow
9:46 AM 21.2 °F 9.5 °F 17.6 °F 86% 29.61 in 1.5 mi NW 11.5 mph - 0.03 in Snow Light Snow
9:52 AM 19.4 °F 4.1 °F 14.0 °F 80% 29.62 in 3.0 mi NW 18.4 mph 25.3 mph 0.03 in Snow Light Snow
9:54 AM 19.9 °F 6.7 °F 14.0 °F 78% 29.65 in 4.0 mi NW 13.8 mph 25.3 mph 0.03 in Snow Light Snow
10:05 AM 19.4 °F 6.6 °F 12.2 °F 74% 29.62 in 2.0 mi NW 12.7 mph 19.6 mph 0.00 in Snow Light Snow
10:07 AM 19.4 °F 7.2 °F 12.2 °F 74% 29.62 in 0.5 mi NW 11.5 mph 19.6 mph 0.00 in Snow Snow
10:11 AM 19.4 °F 6.0 °F 14.0 °F 80% 29.63 in 0.2 mi NW 13.8 mph 25.3 mph 0.00 in Snow Heavy Snow
10:17 AM 19.4 °F 6.0 °F 15.8 °F 86% 29.63 in 0.2 mi WNW 13.8 mph 25.3 mph 0.00 in Fog , Snow Heavy Snow
10:23 AM 17.6 °F 2.2 °F 14.0 °F 86% 29.64 in 0.5 mi WNW 17.3 mph 25.3 mph 0.00 in Fog , Snow Snow
10:27 AM 17.6 °F 4.3 °F 12.2 °F 79% 29.64 in 2.5 mi WNW 12.7 mph 26.5 mph 0.00 in Snow Light Snow
10:30 AM 17.6 °F 6.4 °F 12.2 °F 79% 29.64 in 4.0 mi WNW 9.2 mph 26.5 mph 0.00 in Snow Light Snow
10:36 AM 17.6 °F 4.3 °F 10.4 °F 73% 29.65 in 7.0 mi West 12.7 mph 20.7 mph 0.00 in Snow Light Snow
10:54 AM 18.0 °F 3.6 °F 10.0 °F 71% 29.70 in 4.0 mi WNW 15.0 mph 23.0 mph 0.00 in Snow Light Snow
11:30 AM 15.8 °F 5.1 °F 8.6 °F 73% 29.67 in 1.5 mi WNW 8.1 mph 19.6 mph 0.00 in Snow Light Snow
11:43 AM 15.8 °F 0.3 °F 10.4 °F 79% 29.68 in 0.8 mi WNW 16.1 mph 24.2 mph 0.00 in Snow Light Snow
11:54 AM 15.1 °F 0.5 °F 10.0 °F 80% 29.73 in 1.5 mi WNW 13.8 mph 20.7 mph 0.00 in Snow Light Snow
12:05 PM 14.0 °F 0.5 °F 6.8 °F 73% 29.69 in 2.5 mi WNW 11.5 mph 24.2 mph 0.00 in Snow Light Snow
12:09 PM 14.0 °F -0.8 °F 6.8 °F 73% 29.69 in 5.0 mi WNW 13.8 mph 24.2 mph 0.00 in Snow Light Snow
12:54 PM 14.0 °F 1.2 °F 3.0 °F 62% 29.75 in 7.0 mi WNW 10.4 mph 23.0 mph 0.00 in   Mostly Cloudy
1:54 PM 14.0 °F -1.4 °F -0.0 °F 54% 29.76 in 7.0 mi WNW 15.0 mph 26.5 mph N/A   Scattered Clouds
2:54 PM 14.0 °F -0.8 °F -0.0 °F 54% 29.79 in 9.0 mi WNW 13.8 mph 26.5 mph N/A   Mostly Cloudy
3:54 PM 12.0 °F -3.4 °F -0.0 °F 59% 29.83 in 10.0 mi NW 13.8 mph 21.9 mph N/A   Mostly Cloudy
4:54 PM 10.9 °F -3.4 °F -0.9 °F 59% 29.87 in 10.0 mi WNW 11.5 mph 21.9 mph N/A   Scattered Clouds
5:54 PM 10.0 °F -3.7 °F 1.0 °F 67% 29.92 in 10.0 mi WNW 10.4 mph 26.5 mph N/A   Clear
6:54 PM 8.1 °F -4.3 °F 1.0 °F 73% 29.96 in 10.0 mi West 8.1 mph - N/A   Clear
7:54 PM 7.0 °F -1.7 °F 1.0 °F 77% 29.99 in 10.0 mi West 4.6 mph - N/A   Clear
8:54 PM 6.1 °F -2.8 °F -0.0 °F 76% 30.01 in 10.0 mi West 4.6 mph - N/A   Clear
9:54 PM 5.0 °F -5.6 °F -0.9 °F 76% 30.04 in 10.0 mi West 5.8 mph - N/A   Clear
10:54 PM 5.0 °F -2.1 °F -2.0 °F 73% 30.06 in 10.0 mi West 3.5 mph - N/A   Clear
11:54 PM 1.0 °F - -4.0 °F 79% 30.10 in 10.0 mi Calm Calm - N/A   Clear